CW3467 Sant Marti de Canals ES current weather conditions

sailwx.info

Wind from 218 at 6 knots gusting 11

Air temperature 10.6° C
Dewpoint 2.6° C

Last reported at 2017-Feb-28 11:54 UTC.
Time now 2017-Feb-28 12:40 UTC

Location: N 42°14' E 000°59'.
View on Google Maps.

See reports from other nearby stations

  
Tides and Currents Weather Stations Pressure Air Temp Water Temp Dewpoint Dewpoint Depression Visibility Wind Speed Wind Dir Waves Ship Positions
date/time (UTC)wind fromknots sea level pressurealtimeterstation pressurevisibilityair tempwater tempwave heightnotes
2017-Feb-28 11:54 218 6 gusting 11 10.6
2017-Feb-28 11:38 222 6 gusting 12 10.6
2017-Feb-28 11:23 231 4 gusting 11 10.6
2017-Feb-28 11:08 226 6 gusting 10 10.6
2017-Feb-28 10:53 220 5 gusting 13 10.6
2017-Feb-28 10:38 221 7 gusting 11 10.6
2017-Feb-28 10:23 249 5 gusting 9 11.1
2017-Feb-28 10:08 323 5 gusting 10 11.1
2017-Feb-28 09:53 212 6 gusting 10 10.6
2017-Feb-28 09:38 209 6 gusting 9 10.0
2017-Feb-28 09:23 143 6 gusting 10 10.0
2017-Feb-28 09:08 196 6 gusting 12 9.4
2017-Feb-28 08:53 195 4 gusting 8 9.4
2017-Feb-28 08:38 240 3 gusting 6 9.4
2017-Feb-28 08:23 215 2 gusting 5 8.9
2017-Feb-28 08:08 224 3 gusting 7 8.3
2017-Feb-28 07:53 107 2 gusting 5 7.8
2017-Feb-28 07:38 158 3 gusting 6 7.2
2017-Feb-28 07:23 139 2 gusting 6 7.2
2017-Feb-28 07:08 153 0 gusting 8 7.2
2017-Feb-28 06:53 141 2 gusting 5 7.2
2017-Feb-28 06:38 162 3 gusting 6 7.2
2017-Feb-28 06:23 113 2 gusting 5 7.2
2017-Feb-28 06:08 156 1 gusting 4 7.2
2017-Feb-28 05:53 170 2 gusting 4 7.8
2017-Feb-28 05:38 162 0 gusting 3 7.8
2017-Feb-28 05:23 122 1 gusting 4 7.2
2017-Feb-28 05:08 120 7.2
2017-Feb-28 04:53 245 7.2
2017-Feb-28 04:38 108 6.7
2017-Feb-28 04:23 225 7.2
2017-Feb-28 04:08 107 1 gusting 3 6.7
2017-Feb-28 03:53 238 6.7
2017-Feb-28 03:38 150 1 gusting 3 6.1
2017-Feb-28 03:23 093 5.0
2017-Feb-28 03:08 040 5.0
2017-Feb-28 02:53 274 0 gusting 3 7.8
2017-Feb-28 02:38 138 2 gusting 4 7.2
2017-Feb-28 02:23 139 7.2
2017-Feb-28 02:08 138 7.8
2017-Feb-28 01:53 155 0 gusting 3 7.8
2017-Feb-28 01:38 126 0 gusting 2 7.8
2017-Feb-28 01:23 100 7.2
2017-Feb-28 01:08 218 7.2
2017-Feb-28 00:53 135 1 gusting 2 7.2
2017-Feb-28 00:38 149 7.8
2017-Feb-28 00:22 079 6.7
2017-Feb-28 00:07 222 7.8
2017-Feb-27 23:52 044 1 gusting 2 7.2
2017-Feb-27 23:37 290 7.8
2017-Feb-27 23:22 116 1 gusting 2 7.8
2017-Feb-27 23:07 131 7.8
2017-Feb-27 22:52 269 8.3
2017-Feb-27 22:37 049 8.3
2017-Feb-27 22:22 039 8.3
2017-Feb-27 22:07 040 8.3
2017-Feb-27 21:52 005 1 gusting 2 8.3
2017-Feb-27 21:37 134 3 gusting 5 10.0
2017-Feb-27 21:22 108 9.4
2017-Feb-27 21:07 109 3 gusting 5 10.0
2017-Feb-27 20:52 112 3 gusting 4 10.0
2017-Feb-27 20:37 126 1 gusting 4 10.0
2017-Feb-27 20:22 136 4 gusting 5 10.0
2017-Feb-27 20:07 126 2 gusting 4 10.0
2017-Feb-27 19:52 116 1 gusting 2 10.0
2017-Feb-27 19:37 107 10.0
2017-Feb-27 19:22 146 2 gusting 4 10.6
2017-Feb-27 19:08 156 3 gusting 7 11.1
2017-Feb-27 18:52 149 4 gusting 7 11.1
2017-Feb-27 18:37 131 0 gusting 5 11.1
2017-Feb-27 18:22 093 0 gusting 2 11.1
2017-Feb-27 18:07 136 1 gusting 4 11.1
2017-Feb-27 17:52 139 1 gusting 4 11.7
2017-Feb-27 17:37 248 2 gusting 5 12.2
2017-Feb-27 17:22 225 5 gusting 8 12.8
2017-Feb-27 17:07 240 6 gusting 11 13.3
2017-Feb-27 16:52 225 6 gusting 12 13.9
2017-Feb-27 16:37 294 6 gusting 11 14.4
2017-Feb-27 16:22 229 6 gusting 11 14.4
2017-Feb-27 16:07 275 7 gusting 14 14.4
2017-Feb-27 15:52 348 6 gusting 12 15.0
2017-Feb-27 15:37 070 6 gusting 13 15.0
2017-Feb-27 15:22 285 5 gusting 12 15.6
2017-Feb-27 15:07 236 8 gusting 13 15.6
2017-Feb-27 14:52 229 6 gusting 11 15.6
2017-Feb-27 14:37 165 6 gusting 12 16.1
2017-Feb-27 14:22 216 7 gusting 14 15.6
2017-Feb-27 14:07 250 8 gusting 13 16.1
2017-Feb-27 13:52 214 5 gusting 12 16.1
2017-Feb-27 13:37 215 7 gusting 11 16.1
2017-Feb-27 13:22 232 5 gusting 11 15.6
2017-Feb-27 13:07 253 4 gusting 13 15.6
2017-Feb-27 12:52 235 4 gusting 7 15.0
2017-Feb-27 12:38 225 1 gusting 6 14.4
2017-Feb-27 12:21 235 0 gusting 6 14.4
2017-Feb-27 12:07 227 5 gusting 8 13.9
2017-Feb-27 11:51 210 2 gusting 6 13.3
2017-Feb-27 11:37 150 3 gusting 4 12.8
2017-Feb-27 11:21 253 12.8
2017-Feb-27 11:07 220 1 gusting 2 12.2
2017-Feb-27 10:51 249 11.1
2017-Feb-27 10:37 234 0 gusting 4 10.6
2017-Feb-27 10:21 215 0 gusting 4 9.4
2017-Feb-27 10:07 233 1 gusting 4 8.9
2017-Feb-27 09:51 211 8.3
2017-Feb-27 09:37 268 0 gusting 3 8.3
2017-Feb-27 09:21 208 7.2
2017-Feb-27 09:07 227 0 gusting 1 6.7
2017-Feb-27 08:51 237 6.1
2017-Feb-27 08:37 234 2 gusting 4 6.1
2017-Feb-27 08:21 174 5.6
2017-Feb-27 08:07 149 0 gusting 0 5.0
2017-Feb-27 07:51 131 3.9
2017-Feb-27 07:37 136 2.8
2017-Feb-27 07:21 131 2.2
2017-Feb-27 07:07 110 0 gusting 1 2.2
2017-Feb-27 06:51 148 2.2
2017-Feb-27 06:37 153 2.8
2017-Feb-27 06:21 088 0 gusting 1 2.8
2017-Feb-27 06:07 102 0 gusting 0 2.8
2017-Feb-27 05:51 101 2.2
2017-Feb-27 05:37 107 2.2
2017-Feb-27 05:21 102 2.2
2017-Feb-27 05:07 107 2.8
2017-Feb-27 04:50 103 3.3
2017-Feb-27 04:37 101 0 gusting 1 3.3
2017-Feb-27 04:20 041 3.3
2017-Feb-27 04:07 046 3.3
2017-Feb-27 03:50 041 3.3
2017-Feb-27 03:37 048 3.9
2017-Feb-27 03:20 092 3.9
2017-Feb-27 03:07 113 0 gusting 0 3.9
2017-Feb-27 02:50 108 3.9
2017-Feb-27 02:37 077 4.4
2017-Feb-27 02:20 101 4.4
2017-Feb-27 02:07 105 4.4
2017-Feb-27 01:50 101 4.4
2017-Feb-27 01:37 101 1 gusting 1 4.4
2017-Feb-27 01:20 281 4.4
2017-Feb-27 01:07 286 4.4
2017-Feb-27 00:50 108 5.0
2017-Feb-27 00:37 112 5.0
2017-Feb-27 00:20 105 5.0
2017-Feb-27 00:07 109 5.6
2017-Feb-26 23:50 104 5.6
2017-Feb-26 23:37 109 6.1
2017-Feb-26 23:20 080 5.6
2017-Feb-26 23:07 034 6.1
2017-Feb-26 23:05 029 6.1
2017-Feb-26 22:50 034 6.1
2017-Feb-26 22:37 119 7.2
2017-Feb-26 22:35 114 0 gusting 2 6.7
2017-Feb-26 22:20 103 0 gusting 2 6.7
2017-Feb-26 22:07 141 7.2
2017-Feb-26 21:50 125 0 gusting 2 7.2
2017-Feb-26 21:37 156 2 gusting 3 7.8
2017-Feb-26 21:35 139 1 gusting 2 7.2
2017-Feb-26 21:20 113 0 gusting 2 7.2
2017-Feb-26 21:07 133 8.3
2017-Feb-26 21:05 106 7.8
2017-Feb-26 20:50 101 8.3
2017-Feb-26 20:37 103 8.3
2017-Feb-26 20:35 098 8.3
2017-Feb-26 20:20 119 8.3
2017-Feb-26 20:07 099 9.4
2017-Feb-26 20:05 086 8.9
2017-Feb-26 19:50 086 9.4
2017-Feb-26 19:37 010 10.0
2017-Feb-26 19:35 003 9.4
2017-Feb-26 19:20 039 10.0
2017-Feb-26 19:07 055 1 gusting 2 10.0
2017-Feb-26 19:05 047 0 gusting 2 10.0
2017-Feb-26 18:50 037 0 gusting 2 10.0
2017-Feb-26 18:37 054 1 gusting 2 10.6
2017-Feb-26 18:35 044 0 gusting 2 10.6
2017-Feb-26 18:20 044 0 gusting 1 11.1
2017-Feb-26 18:07 358 0 gusting 2 11.7
2017-Feb-26 18:05 305 0 gusting 2 11.7
2017-Feb-26 17:50 104 0 gusting 5 12.8
2017-Feb-26 17:37 132 2 gusting 7 13.3
2017-Feb-26 17:34 127 1 gusting 7 13.3
2017-Feb-26 17:20 139 4 gusting 6 13.9
2017-Feb-26 17:07 144 4 gusting 7 14.4
2017-Feb-26 17:04 114 4 gusting 7 14.4
2017-Feb-26 16:49 194 2 gusting 6 15.6
2017-Feb-26 16:37 226 2 gusting 4 16.7
2017-Feb-26 16:35 224 1 gusting 3 16.1
2017-Feb-26 16:19 235 2 gusting 5 16.7
2017-Feb-26 16:07 359 2 gusting 6 16.7
2017-Feb-26 16:04 232 1 gusting 4 16.7
2017-Feb-26 15:49 217 1 gusting 5 16.1
2017-Feb-26 15:37 233 2 gusting 5 16.7
2017-Feb-26 15:34 250 0 gusting 5 16.7
2017-Feb-26 15:19 236 1 gusting 5 16.1
2017-Feb-26 15:07 025 3 gusting 6 16.7
2017-Feb-26 15:04 215 1 gusting 6 16.1
2017-Feb-26 14:49 248 1 gusting 5 16.1
2017-Feb-26 14:37 208 2 gusting 5 16.7
2017-Feb-26 14:34 240 0 gusting 3 16.7
2017-Feb-26 14:19 141 0 gusting 2 16.1
2017-Feb-26 14:07 319 1 gusting 3 16.1
2017-Feb-26 14:04 267 0 gusting 2 15.6
2017-Feb-26 13:49 266 0 gusting 2 15.6
2017-Feb-26 13:37 160 1 gusting 5 15.0
2017-Feb-26 13:34 234 1 gusting 5 15.0
2017-Feb-26 13:19 177 0 gusting 2 15.0
2017-Feb-26 13:07 279 0 gusting 3 14.4
2017-Feb-26 13:04 212 0 gusting 3 14.4
2017-Feb-26 12:49 231 0 gusting 4 13.9
2017-Feb-26 12:37 269 1 gusting 4 13.9
2017-Feb-26 12:34 225 0 gusting 3 13.3
2017-Feb-26 12:19 222 0 gusting 3 13.3
2017-Feb-26 12:07 206 0 gusting 3 12.8
2017-Feb-26 12:04 210 0 gusting 3 12.8